Regional Weather Roundup
Issued by NWS Northern Indiana

Home | Current Version | Previous Version | Graphics & Text | Print | Product List | Glossary On
Versions: 1 2 3 4 5 6 7 8 9 10 11 12 13 14 15 16 17 18 19 20 21 22 23 24 25 26 27 28 29 30 31 32 33 34 35 36 37 38 39 40 41 42 43 44 45 46 47 48 49 50
000
ASUS43 KIWX 011500
RWRIWX

KIWX WEATHER ROUNDUP
NATIONAL WEATHER SERVICE NORTHERN INDIANA
1100 AM EDT TUE SEP 01 2015

NOTE: "FAIR" INDICATES FEW OR NO CLOUDS BELOW 12,000 FEET WITH NO
SIGNIFICANT WEATHER AND/OR OBSTRUCTIONS TO VISIBILITY.

* THESE STATIONS ARE NOT UNDER NWS QUALITY CONTROL. THEY ALSO MAY NOT
  REPORT WEATHER SUCH AS PRECIPITATION OR FOG.

INZ001>027-011600-
NORTHERN INDIANA

CITY           SKY/WX    TMP DP  RH WIND       PRES   REMARKS
GARY*          MOSUNNY   81  70  69 SW6       30.08R
KNOX*          SUNNY     79  70  73 SW7       30.09S
SOUTH BEND     MOSUNNY   78  71  79 SW7       30.10S
GOSHEN         SUNNY     80  72  76 SW7       30.10F
MONTICELLO*    MOSUNNY   78  70  77 SW10      30.11R
WARSAW*        SUNNY     79  72  78 SW5       30.11S
ANGOLA*        SUNNY     82  73  74 W5        30.12R
FORT WAYNE     MOSUNNY   80  71  74 SW6       30.13S
PERU/GRISSOM   MOSUNNY   81  71  69 SW9       30.11S

$$
INZ028>050-011600-
CENTRAL INDIANA

CITY           SKY/WX    TMP DP  RH WIND       PRES   REMARKS
LAFAYETTE      PTSUNNY   76  69  79 W9        30.12R
KOKOMO*        MOSUNNY   82  70  65 SW8       30.13R
MUNCIE*        MOSUNNY   78  69  73 VRB3      30.15R
INDIANAPOLIS   MOSUNNY   80  67  64 SW10      30.14S

$$
MIZ043>046-050>051-056>058-064>065-071>073-077>080-011600-
SOUTHWEST LOWER MICHIGAN

CITY           SKY/WX    TMP DP  RH WIND       PRES   REMARKS
BATTLE CREEK   SUNNY     81  72  74 W5        30.11S
BENTON HARBOR  MOSUNNY   80  73  79 S6        30.07F
COLDWATER*     SUNNY     80  73  77 W5        30.11S
HILLSDALE*     SUNNY     81  73  78 W5        30.12F
HOLLAND        SUNNY     80  72  76 SW6       30.08S
GRAND RAPIDS   MOSUNNY   80  72  76 VRB3      30.08S
KALAMAZOO      SUNNY     80  71  74 S6        30.10S
STURGIS*       SUNNY     79  73  83 CALM      30.10S
THREE RIVERS*  FAIR      79  72  80 S3        30.10S

$$
OHZ001>008-015>018-024>025-011600-
NORTHWEST OHIO

CITY           SKY/WX    TMP DP  RH WIND       PRES   REMARKS
DEFIANCE       SUNNY     81  71  71 VRB3      30.12S
FINDLAY        SUNNY     80  70  71 VRB3      30.12S
TOLEDO EXPRESS SUNNY     80  71  74 SW5       30.11S
TOLEDO METCALF SUNNY     81  70  69 VRB5      30.12S
LIMA           SUNNY     79  69  71 SW3       30.14S

$$
AND FOR LAKE MICHIGAN COASTAL AND OPEN LAKE BUOY OBSERVATIONS

STATION/POSITION TEMP    WIND        PRES    VSBY  WAVE
                 AIR SEA DIR/SP/G                  HT/PER
                 (F)     (DEG/KT/KT) (MB)    (MI)  (FT/S)
CALUMET HARBOR    76     190/  5/  7   N/A
MICHIGAN CITY     75     160/  8/  9   N/A
BURNS HARBOR      75     190/  8/ 11 1018.6S
SAINT JOSEPH      77     170/  3/  5 1019.0F
SOUTH LAKE BUOY   71 70  180/ 10/ 12 1017.2S         1
4 MI NW BRIDGMAN  73 71  200/  6/  6   N/A           1
MICHIGAN CITY     73 72  190/  6/  8   N/A           1

$$
&&



USA.gov is the U.S. government's official web portal to all federal, state and local government web resources and services.